Вернуться в каталог

FENGYUN 1C DEB

АктивенSSO
NORAD 31002·DEBRIS·🇨🇳 China

Запущен May 10, 1999 с Taiyuan Satellite Launch Center

Loading…

Ближайшие Пролёты (ближайшие 24 часа)

TLE

СвежийSource: Space-Track

Эпоха: Sep 13, 2026, 12:53 UTC

1 31002U 99025BCU 26256.53699269  .00000179  00000-0  14677-3 0  9996
2 31002  98.8808 265.3027 0098061 306.2282 206.4372 13.99437025994482

Отслеживайте FENGYUN 1C DEB в реальном времени с AllMySat

Download on the App Store